Time,TemperatureF,DewpointF,PressureIn,WindDirection,WindDirectionDegrees,WindSpeedMPH,WindSpeedGustMPH,Humidity,HourlyPrecipIn,Conditions,Clouds,dailyrainin,SoftwareType,DateUTC
2013-04-06 00:03:00,54.4,37.6,29.95,SSW,209,8.0,9.0,53,0.00,,,0.00,Wunderground v.1.15,2013-04-06 05:03:00,
2013-04-06 00:08:00,54.3,38.0,29.94,SW,223,8.0,9.0,54,0.00,,,0.00,Wunderground v.1.15,2013-04-06 05:08:00,
2013-04-06 00:14:00,54.2,38.4,29.94,SW,225,8.0,10.0,55,0.00,,,0.00,Wunderground v.1.15,2013-04-06 05:14:00,
2013-04-06 00:19:00,54.0,38.2,29.94,SW,219,8.0,12.0,55,0.00,,,0.00,Wunderground v.1.15,2013-04-06 05:19:00,
2013-04-06 00:25:00,54.0,38.2,29.94,SW,216,8.0,9.0,55,0.00,,,0.00,Wunderground v.1.15,2013-04-06 05:25:00,
2013-04-06 00:32:00,54.1,38.7,29.94,SSW,194,8.0,13.0,56,0.00,,,0.00,Wunderground v.1.15,2013-04-06 05:32:00,
2013-04-06 00:38:00,54.3,38.5,29.94,SSW,196,9.0,13.0,55,0.00,,,0.00,Wunderground v.1.15,2013-04-06 05:38:00,
2013-04-06 00:43:00,54.5,38.2,29.94,SW,222,10.0,13.0,54,0.00,,,0.00,Wunderground v.1.15,2013-04-06 05:43:00,
2013-04-06 00:48:00,54.6,38.3,29.93,SW,233,10.0,13.0,54,0.00,,,0.00,Wunderground v.1.15,2013-04-06 05:48:00,
2013-04-06 00:53:00,54.5,38.7,29.93,SW,214,10.0,13.0,55,0.00,,,0.00,Wunderground v.1.15,2013-04-06 05:53:00,
2013-04-06 01:00:00,54.2,38.4,29.93,SSW,203,10.0,10.0,55,0.00,,,0.00,Wunderground v.1.15,2013-04-06 06:00:00,
2013-04-06 01:06:00,54.2,38.4,29.93,SW,225,9.0,13.0,55,0.00,,,0.00,Wunderground v.1.15,2013-04-06 06:06:00,
2013-04-06 01:11:00,54.1,38.7,29.93,SSW,198,9.0,13.0,56,0.00,,,0.00,Wunderground v.1.15,2013-04-06 06:11:00,
2013-04-06 01:16:00,54.1,38.7,29.93,South,186,10.0,13.0,56,0.00,,,0.00,Wunderground v.1.15,2013-04-06 06:16:00,
2013-04-06 01:22:00,54.1,38.7,29.93,SW,215,10.0,14.0,56,0.00,,,0.00,Wunderground v.1.15,2013-04-06 06:22:00,
2013-04-06 01:28:00,54.1,38.7,29.93,SSW,192,10.0,14.0,56,0.00,,,0.00,Wunderground v.1.15,2013-04-06 06:28:00,
2013-04-06 01:34:00,54.1,38.7,29.93,WSW,238,10.0,13.0,56,0.00,,,0.00,Wunderground v.1.15,2013-04-06 06:34:00,
2013-04-06 01:39:00,53.9,38.6,29.93,South,171,9.0,13.0,56,0.00,,,0.00,Wunderground v.1.15,2013-04-06 06:39:00,
2013-04-06 01:45:00,53.9,38.6,29.92,South,189,8.0,13.0,56,0.00,,,0.00,Wunderground v.1.15,2013-04-06 06:45:00,
2013-04-06 01:50:00,53.9,38.6,29.92,SSW,213,8.0,13.0,56,0.00,,,0.00,Wunderground v.1.15,2013-04-06 06:50:00,
2013-04-06 01:57:00,54.0,38.6,29.92,SSW,195,9.0,13.0,56,0.00,,,0.00,Wunderground v.1.15,2013-04-06 06:57:00,
2013-04-06 02:03:00,54.0,38.6,29.91,SW,227,9.0,13.0,56,0.00,,,0.00,Wunderground v.1.15,2013-04-06 07:03:00,
2013-04-06 02:09:00,54.0,38.6,29.91,SW,221,9.0,16.0,56,0.00,,,0.00,Wunderground v.1.15,2013-04-06 07:09:00,
2013-04-06 02:14:00,53.8,38.5,29.91,SW,225,9.0,13.0,56,0.00,,,0.00,Wunderground v.1.15,2013-04-06 07:14:00,
2013-04-06 02:20:00,53.8,38.9,29.91,SSW,209,9.0,9.0,57,0.00,,,0.00,Wunderground v.1.15,2013-04-06 07:20:00,
2013-04-06 02:25:00,53.8,38.5,29.91,SSW,194,9.0,13.0,56,0.00,,,0.00,Wunderground v.1.15,2013-04-06 07:25:00,
2013-04-06 02:30:00,53.7,38.4,29.91,SW,233,9.0,9.0,56,0.00,,,0.00,Wunderground v.1.15,2013-04-06 07:30:00,
2013-04-06 02:35:00,53.7,38.8,29.90,SW,223,8.0,13.0,57,0.00,,,0.00,Wunderground v.1.15,2013-04-06 07:35:00,
2013-04-06 02:40:00,53.5,38.6,29.90,SW,222,8.0,13.0,57,0.00,,,0.00,Wunderground v.1.15,2013-04-06 07:40:00,
2013-04-06 02:46:00,53.6,38.3,29.90,SSW,209,9.0,13.0,56,0.00,,,0.00,Wunderground v.1.15,2013-04-06 07:46:00,
2013-04-06 02:52:00,53.4,39.0,29.90,SW,225,8.0,13.0,58,0.00,,,0.00,Wunderground v.1.15,2013-04-06 07:52:00,
2013-04-06 02:57:00,53.4,38.5,29.90,SSW,207,8.0,13.0,57,0.00,,,0.00,Wunderground v.1.15,2013-04-06 07:57:00,
2013-04-06 03:03:00,53.4,38.5,29.90,SW,236,9.0,13.0,57,0.00,,,0.00,Wunderground v.1.15,2013-04-06 08:03:00,
2013-04-06 03:08:00,53.5,38.6,29.90,SW,229,8.0,13.0,57,0.00,,,0.00,Wunderground v.1.15,2013-04-06 08:08:00,
2013-04-06 03:14:00,53.6,38.7,29.90,WSW,246,9.0,13.0,57,0.00,,,0.00,Wunderground v.1.15,2013-04-06 08:14:00,
2013-04-06 03:21:00,53.3,38.9,29.89,SSW,198,8.0,13.0,58,0.00,,,0.00,Wunderground v.1.15,2013-04-06 08:21:00,
2013-04-06 03:27:00,53.4,38.5,29.89,SW,230,9.0,13.0,57,0.00,,,0.00,Wunderground v.1.15,2013-04-06 08:27:00,
2013-04-06 03:32:00,53.4,39.0,29.89,SW,225,9.0,13.0,58,0.00,,,0.00,Wunderground v.1.15,2013-04-06 08:32:00,
2013-04-06 03:37:00,53.2,38.8,29.89,WSW,240,8.0,13.0,58,0.00,,,0.00,Wunderground v.1.15,2013-04-06 08:37:00,
2013-04-06 03:42:00,53.1,38.7,29.89,SW,218,7.0,13.0,58,0.00,,,0.00,Wunderground v.1.15,2013-04-06 08:42:00,
2013-04-06 03:48:00,53.2,38.8,29.89,WSW,249,7.0,13.0,58,0.00,,,0.00,Wunderground v.1.15,2013-04-06 08:48:00,
2013-04-06 03:54:00,53.5,39.1,29.89,WSW,243,8.0,13.0,58,0.00,,,0.00,Wunderground v.1.15,2013-04-06 08:54:00,
2013-04-06 03:59:00,53.4,39.0,29.88,SW,232,9.0,13.0,58,0.00,,,0.00,Wunderground v.1.15,2013-04-06 08:59:00,
2013-04-06 04:04:00,53.4,38.5,29.88,WSW,248,9.0,13.0,57,0.00,,,0.00,Wunderground v.1.15,2013-04-06 09:04:00,
2013-04-06 04:09:00,53.6,38.7,29.88,WSW,246,9.0,13.0,57,0.00,,,0.00,Wunderground v.1.15,2013-04-06 09:09:00,
2013-04-06 04:15:00,53.8,38.9,29.88,WSW,250,10.0,16.0,57,0.00,,,0.00,Wunderground v.1.15,2013-04-06 09:15:00,
2013-04-06 04:21:00,54.0,38.6,29.88,West,265,10.0,13.0,56,0.00,,,0.00,Wunderground v.1.15,2013-04-06 09:21:00,
2013-04-06 04:26:00,53.8,38.9,29.87,WSW,248,10.0,14.0,57,0.00,,,0.00,Wunderground v.1.15,2013-04-06 09:26:00,
2013-04-06 04:32:00,53.6,39.2,29.87,SW,223,10.0,13.0,58,0.00,,,0.00,Wunderground v.1.15,2013-04-06 09:32:00,
2013-04-06 04:38:00,53.3,39.3,29.87,SW,236,9.0,13.0,59,0.00,,,0.00,Wunderground v.1.15,2013-04-06 09:38:00,
2013-04-06 04:43:00,53.3,38.9,29.87,WSW,257,9.0,13.0,58,0.00,,,0.00,Wunderground v.1.15,2013-04-06 09:43:00,
2013-04-06 04:48:00,53.2,39.2,29.87,WSW,242,9.0,13.0,59,0.00,,,0.00,Wunderground v.1.15,2013-04-06 09:48:00,
2013-04-06 04:54:00,53.3,39.3,29.86,WSW,240,8.0,13.0,59,0.00,,,0.00,Wunderground v.1.15,2013-04-06 09:54:00,
2013-04-06 05:00:00,53.4,39.4,29.86,WSW,248,8.0,13.0,59,0.00,,,0.00,Wunderground v.1.15,2013-04-06 10:00:00,
2013-04-06 05:08:00,53.3,39.3,29.86,WSW,248,8.0,13.0,59,0.00,,,0.00,Wunderground v.1.15,2013-04-06 10:08:00,
2013-04-06 05:13:00,53.2,39.2,29.86,WSW,238,8.0,13.0,59,0.00,,,0.00,Wunderground v.1.15,2013-04-06 10:13:00,
2013-04-06 05:18:00,53.5,39.1,29.87,SW,236,9.0,13.0,58,0.00,,,0.00,Wunderground v.1.15,2013-04-06 10:18:00,
2013-04-06 05:24:00,53.3,39.3,29.87,WSW,246,8.0,13.0,59,0.00,,,0.00,Wunderground v.1.15,2013-04-06 10:24:00,
2013-04-06 05:30:00,53.2,39.2,29.86,WSW,245,7.0,13.0,59,0.00,,,0.00,Wunderground v.1.15,2013-04-06 10:30:00,
2013-04-06 05:36:00,53.1,39.1,29.86,WSW,248,9.0,13.0,59,0.00,,,0.00,Wunderground v.1.15,2013-04-06 10:36:00,
2013-04-06 05:41:00,53.1,39.6,29.85,WSW,242,9.0,13.0,60,0.00,,,0.00,Wunderground v.1.15,2013-04-06 10:41:00,
2013-04-06 05:47:00,53.1,39.6,29.85,WSW,251,9.0,13.0,60,0.00,,,0.00,Wunderground v.1.15,2013-04-06 10:47:00,
2013-04-06 05:53:00,53.3,39.3,29.86,SW,232,10.0,13.0,59,0.00,,,0.00,Wunderground v.1.15,2013-04-06 10:53:00,
2013-04-06 05:58:00,53.3,39.3,29.86,WSW,246,9.0,13.0,59,0.00,,,0.00,Wunderground v.1.15,2013-04-06 10:58:00,
2013-04-06 06:03:00,53.1,39.1,29.85,SSW,211,7.0,13.0,59,0.00,,,0.00,Wunderground v.1.15,2013-04-06 11:03:00,
2013-04-06 06:08:00,52.9,39.4,29.85,WSW,238,8.0,13.0,60,0.00,,,0.00,Wunderground v.1.15,2013-04-06 11:08:00,
2013-04-06 06:15:00,53.0,39.0,29.85,SW,223,9.0,13.0,59,0.00,,,0.00,Wunderground v.1.15,2013-04-06 11:15:00,
2013-04-06 06:21:00,53.2,39.2,29.85,WSW,240,10.0,13.0,59,0.00,,,0.00,Wunderground v.1.15,2013-04-06 11:21:00,
2013-04-06 06:27:00,53.4,39.0,29.86,WSW,237,10.0,14.0,58,0.00,,,0.00,Wunderground v.1.15,2013-04-06 11:27:00,
2013-04-06 06:33:00,53.5,39.1,29.85,WSW,246,11.0,13.0,58,0.00,,,0.00,Wunderground v.1.15,2013-04-06 11:33:00,
2013-04-06 06:39:00,53.5,39.1,29.86,WSW,245,11.0,13.0,58,0.00,,,0.00,Wunderground v.1.15,2013-04-06 11:39:00,
2013-04-06 06:44:00,53.2,38.8,29.86,West,259,10.0,13.0,58,0.00,,,0.00,Wunderground v.1.15,2013-04-06 11:44:00,
2013-04-06 06:50:00,53.0,39.0,29.86,SW,234,9.0,13.0,59,0.00,,,0.00,Wunderground v.1.15,2013-04-06 11:50:00,
2013-04-06 06:55:00,53.2,39.2,29.86,WSW,240,8.0,13.0,59,0.00,,,0.00,Wunderground v.1.15,2013-04-06 11:55:00,
2013-04-06 07:02:00,53.2,39.2,29.86,SW,232,9.0,13.0,59,0.00,,,0.00,Wunderground v.1.15,2013-04-06 12:02:00,
2013-04-06 07:08:00,53.3,39.3,29.87,West,261,9.0,13.0,59,0.00,,,0.00,Wunderground v.1.15,2013-04-06 12:08:00,
2013-04-06 07:13:00,53.5,39.1,29.87,WSW,256,9.0,13.0,58,0.00,,,0.00,Wunderground v.1.15,2013-04-06 12:13:00,
2013-04-06 07:19:00,53.7,39.3,29.87,WSW,256,9.0,13.0,58,0.00,,,0.00,Wunderground v.1.15,2013-04-06 12:19:00,
2013-04-06 07:25:00,53.6,39.2,29.86,WSW,242,9.0,13.0,58,0.00,,,0.00,Wunderground v.1.15,2013-04-06 12:25:00,
2013-04-06 07:31:00,53.7,39.3,29.86,WSW,242,10.0,13.0,58,0.00,,,0.00,Wunderground v.1.15,2013-04-06 12:31:00,
2013-04-06 07:37:00,53.8,39.4,29.85,WSW,254,10.0,15.0,58,0.00,,,0.00,Wunderground v.1.15,2013-04-06 12:37:00,
2013-04-06 07:42:00,54.0,39.5,29.85,WSW,245,11.0,13.0,58,0.00,,,0.00,Wunderground v.1.15,2013-04-06 12:42:00,
2013-04-06 07:50:00,54.0,39.1,29.85,WSW,249,11.0,11.0,57,0.00,,,0.00,Wunderground v.1.15,2013-04-06 12:50:00,
2013-04-06 07:55:00,54.0,39.5,29.85,SW,231,11.0,13.0,58,0.00,,,0.00,Wunderground v.1.15,2013-04-06 12:55:00,
2013-04-06 08:00:00,54.1,39.2,29.85,WSW,242,11.0,14.0,57,0.00,,,0.00,Wunderground v.1.15,2013-04-06 13:00:00,
2013-04-06 08:05:00,54.3,39.4,29.84,WSW,246,12.0,14.0,57,0.00,,,0.00,Wunderground v.1.15,2013-04-06 13:05:00,
2013-04-06 08:12:00,54.6,39.7,29.84,WSW,237,12.0,14.0,57,0.00,,,0.00,Wunderground v.1.15,2013-04-06 13:12:00,
2013-04-06 08:17:00,54.6,39.2,29.84,West,265,12.0,18.0,56,0.00,,,0.00,Wunderground v.1.15,2013-04-06 13:17:00,
2013-04-06 08:23:00,54.9,39.5,29.84,West,265,12.0,14.0,56,0.00,,,0.00,Wunderground v.1.15,2013-04-06 13:23:00,
2013-04-06 08:29:00,55.0,39.6,29.83,WSW,246,13.0,16.0,56,0.00,,,0.00,Wunderground v.1.15,2013-04-06 13:29:00,
2013-04-06 08:35:00,55.3,39.9,29.83,WSW,246,13.0,15.0,56,0.00,,,0.00,Wunderground v.1.15,2013-04-06 13:35:00,
2013-04-06 08:41:00,55.5,39.6,29.82,WSW,237,14.0,15.0,55,0.00,,,0.00,Wunderground v.1.15,2013-04-06 13:41:00,
2013-04-06 08:47:00,56.0,39.1,29.81,West,268,14.0,20.0,53,0.00,,,0.00,Wunderground v.1.15,2013-04-06 13:47:00,
2013-04-06 08:53:00,56.4,39.5,29.81,SW,225,15.0,19.0,53,0.00,,,0.00,Wunderground v.1.15,2013-04-06 13:53:00,
2013-04-06 08:59:00,56.9,39.4,29.80,WSW,254,14.0,19.0,52,0.00,,,0.00,Wunderground v.1.15,2013-04-06 13:59:00,
2013-04-06 09:06:00,57.2,39.2,29.81,WSW,243,14.0,16.0,51,0.00,,,0.00,Wunderground v.1.15,2013-04-06 14:06:00,
2013-04-06 09:12:00,57.7,39.7,29.81,WSW,247,14.0,15.0,51,0.00,,,0.00,Wunderground v.1.15,2013-04-06 14:12:00,
2013-04-06 09:18:00,57.8,40.3,29.81,WSW,248,13.0,16.0,52,0.00,,,0.00,Wunderground v.1.15,2013-04-06 14:18:00,
2013-04-06 09:23:00,57.9,40.9,29.80,SW,232,13.0,14.0,53,0.00,,,0.00,Wunderground v.1.15,2013-04-06 14:23:00,
2013-04-06 09:29:00,58.4,40.3,29.80,WSW,254,12.0,20.0,51,0.00,,,0.00,Wunderground v.1.15,2013-04-06 14:29:00,
2013-04-06 09:34:00,59.1,39.9,29.80,WNW,290,13.0,13.0,49,0.00,,,0.00,Wunderground v.1.15,2013-04-06 14:34:00,
2013-04-06 09:40:00,59.2,39.5,29.79,WSW,255,14.0,18.0,48,0.00,,,0.00,Wunderground v.1.15,2013-04-06 14:40:00,
2013-04-06 09:45:00,59.0,39.9,29.78,WSW,253,14.0,18.0,49,0.00,,,0.00,Wunderground v.1.15,2013-04-06 14:45:00,
2013-04-06 09:51:00,59.0,40.4,29.77,WSW,255,15.0,19.0,50,0.00,,,0.00,Wunderground v.1.15,2013-04-06 14:51:00,
2013-04-06 09:57:00,59.8,41.1,29.76,SW,236,16.0,25.0,50,0.00,,,0.00,Wunderground v.1.15,2013-04-06 14:57:00,
2013-04-06 10:03:00,60.3,41.0,29.75,SW,232,15.0,21.0,49,0.00,,,0.00,Wunderground v.1.15,2013-04-06 15:03:00,
2013-04-06 10:09:00,60.1,40.9,29.75,WNW,282,16.0,21.0,49,0.00,,,0.00,Wunderground v.1.15,2013-04-06 15:09:00,
2013-04-06 10:14:00,60.8,41.0,29.76,WSW,258,16.0,19.0,48,0.00,,,0.00,Wunderground v.1.15,2013-04-06 15:14:00,
2013-04-06 10:20:00,61.3,40.9,29.75,West,277,16.0,21.0,47,0.00,,,0.00,Wunderground v.1.15,2013-04-06 15:20:00,
2013-04-06 10:29:00,61.6,41.2,29.77,West,281,16.0,21.0,47,0.00,,,0.00,Wunderground v.1.15,2013-04-06 15:29:00,
2013-04-06 10:35:00,61.5,41.1,29.77,WNW,285,17.0,22.0,47,0.00,,,0.00,Wunderground v.1.15,2013-04-06 15:35:00,
2013-04-06 10:40:00,61.7,41.8,29.77,West,273,17.0,17.0,48,0.00,,,0.00,Wunderground v.1.15,2013-04-06 15:40:00,
2013-04-06 10:46:00,62.1,41.1,29.76,WSW,257,15.0,24.0,46,0.00,,,0.00,Wunderground v.1.15,2013-04-06 15:46:00,
2013-04-06 10:52:00,62.6,42.1,29.76,West,281,15.0,23.0,47,0.00,,,0.00,Wunderground v.1.15,2013-04-06 15:52:00,
2013-04-06 10:58:00,63.2,42.1,29.75,WSW,253,15.0,25.0,46,0.00,,,0.00,Wunderground v.1.15,2013-04-06 15:58:00,
2013-04-06 11:04:00,64.5,42.7,29.75,West,274,18.0,19.0,45,0.00,,,0.00,Wunderground v.1.15,2013-04-06 16:04:00,
2013-04-06 11:09:00,64.3,41.9,29.75,West,275,18.0,26.0,44,0.00,,,0.00,Wunderground v.1.15,2013-04-06 16:09:00,
2013-04-06 11:15:00,63.9,42.7,29.75,West,261,18.0,28.0,46,0.00,,,0.00,Wunderground v.1.15,2013-04-06 16:15:00,
2013-04-06 11:21:00,63.6,42.4,29.74,West,272,21.0,26.0,46,0.00,,,0.00,Wunderground v.1.15,2013-04-06 16:21:00,
2013-04-06 11:27:00,63.7,41.9,29.74,West,269,19.0,26.0,45,0.00,,,0.00,Wunderground v.1.15,2013-04-06 16:27:00,
2013-04-06 11:32:00,64.0,42.2,29.74,West,267,17.0,25.0,45,0.00,,,0.00,Wunderground v.1.15,2013-04-06 16:32:00,
2013-04-06 11:38:00,63.7,42.5,29.75,West,273,17.0,25.0,46,0.00,,,0.00,Wunderground v.1.15,2013-04-06 16:38:00,
2013-04-06 11:44:00,63.5,42.3,29.74,West,271,16.0,18.0,46,0.00,,,0.00,Wunderground v.1.15,2013-04-06 16:44:00,
2013-04-06 11:49:00,63.7,42.5,29.74,West,277,17.0,23.0,46,0.00,,,0.00,Wunderground v.1.15,2013-04-06 16:49:00,
2013-04-06 12:00:00,64.0,42.8,29.73,WNW,290,18.0,19.0,46,0.00,,,0.00,Wunderground v.1.15,2013-04-06 17:00:00,
2013-04-06 12:07:00,64.0,42.8,29.73,West,259,19.0,26.0,46,0.00,,,0.00,Wunderground v.1.15,2013-04-06 17:07:00,
2013-04-06 12:12:00,63.8,42.6,29.72,West,259,16.0,19.0,46,0.00,,,0.00,Wunderground v.1.15,2013-04-06 17:12:00,
2013-04-06 12:18:00,64.0,43.4,29.72,WNW,282,17.0,22.0,47,0.00,,,0.00,Wunderground v.1.15,2013-04-06 17:18:00,
2013-04-06 12:24:00,64.2,43.5,29.72,West,266,16.0,19.0,47,0.00,,,0.00,Wunderground v.1.15,2013-04-06 17:24:00,
2013-04-06 12:30:00,64.3,43.1,29.71,WNW,289,16.0,16.0,46,0.00,,,0.00,Wunderground v.1.15,2013-04-06 17:30:00,
2013-04-06 12:35:00,64.7,43.4,29.71,West,259,17.0,17.0,46,0.00,,,0.00,Wunderground v.1.15,2013-04-06 17:35:00,
2013-04-06 12:42:00,66.0,44.0,29.71,West,279,16.0,18.0,45,0.00,,,0.00,Wunderground v.1.15,2013-04-06 17:42:00,
2013-04-06 12:48:00,65.9,43.4,29.70,WNW,285,17.0,22.0,44,0.00,,,0.00,Wunderground v.1.15,2013-04-06 17:48:00,
2013-04-06 12:53:00,65.4,42.9,29.70,West,273,19.0,27.0,44,0.00,,,0.00,Wunderground v.1.15,2013-04-06 17:53:00,
2013-04-06 12:58:00,65.8,43.9,29.70,West,263,18.0,27.0,45,0.00,,,0.00,Wunderground v.1.15,2013-04-06 17:58:00,
2013-04-06 13:03:00,66.1,44.1,29.70,West,277,17.0,20.0,45,0.00,,,0.00,Wunderground v.1.15,2013-04-06 18:03:00,
2013-04-06 13:10:00,66.3,43.7,29.70,WNW,288,17.0,17.0,44,0.00,,,0.00,Wunderground v.1.15,2013-04-06 18:10:00,
2013-04-06 13:16:00,67.4,44.1,29.70,West,266,18.0,23.0,43,0.00,,,0.00,Wunderground v.1.15,2013-04-06 18:16:00,
2013-04-06 13:22:00,67.4,43.5,29.70,WSW,256,18.0,27.0,42,0.00,,,0.00,Wunderground v.1.15,2013-04-06 18:22:00,
2013-04-06 13:27:00,67.0,44.4,29.69,West,281,19.0,27.0,44,0.00,,,0.00,Wunderground v.1.15,2013-04-06 18:27:00,
2013-04-06 13:33:00,67.2,43.3,29.68,West,271,19.0,25.0,42,0.00,,,0.00,Wunderground v.1.15,2013-04-06 18:33:00,
2013-04-06 13:39:00,68.3,45.5,29.68,West,275,21.0,29.0,44,0.00,,,0.00,Wunderground v.1.15,2013-04-06 18:39:00,
2013-04-06 13:44:00,68.6,44.6,29.68,WNW,288,21.0,29.0,42,0.00,,,0.00,Wunderground v.1.15,2013-04-06 18:44:00,
2013-04-06 13:50:00,68.4,43.1,29.68,West,278,21.0,21.0,40,0.00,,,0.00,Wunderground v.1.15,2013-04-06 18:50:00,
2013-04-06 13:56:00,68.9,43.6,29.67,WNW,285,21.0,25.0,40,0.00,,,0.00,Wunderground v.1.15,2013-04-06 18:56:00,
2013-04-06 14:02:00,68.2,42.9,29.67,WNW,284,21.0,31.0,40,0.00,,,0.00,Wunderground v.1.15,2013-04-06 19:02:00,
2013-04-06 14:08:00,68.1,44.7,29.67,WNW,294,20.0,31.0,43,0.00,,,0.00,Wunderground v.1.15,2013-04-06 19:08:00,
2013-04-06 14:13:00,68.1,44.7,29.67,WNW,284,19.0,23.0,43,0.00,,,0.00,Wunderground v.1.15,2013-04-06 19:13:00,
2013-04-06 14:20:00,68.5,43.9,29.66,West,276,20.0,20.0,41,0.00,,,0.00,Wunderground v.1.15,2013-04-06 19:20:00,
2013-04-06 14:26:00,69.7,44.3,29.66,West,271,21.0,25.0,40,0.00,,,0.00,Wunderground v.1.15,2013-04-06 19:26:00,
2013-04-06 14:32:00,69.5,45.4,29.66,West,281,22.0,29.0,42,0.00,,,0.00,Wunderground v.1.15,2013-04-06 19:32:00,
2013-04-06 14:37:00,69.6,44.8,29.65,WSW,258,23.0,29.0,41,0.00,,,0.00,Wunderground v.1.15,2013-04-06 19:37:00,
2013-04-06 14:43:00,69.5,44.8,29.65,West,277,23.0,27.0,41,0.00,,,0.00,Wunderground v.1.15,2013-04-06 19:43:00,
2013-04-06 14:48:00,68.8,44.8,29.66,West,277,22.0,27.0,42,0.00,,,0.00,Wunderground v.1.15,2013-04-06 19:48:00,
2013-04-06 14:55:00,68.4,45.0,29.65,WNW,291,18.0,24.0,43,0.00,,,0.00,Wunderground v.1.15,2013-04-06 19:55:00,
2013-04-06 15:03:00,68.0,45.3,29.65,WNW,284,19.0,19.0,44,0.00,,,0.00,Wunderground v.1.15,2013-04-06 20:03:00,
2013-04-06 15:08:00,68.3,45.5,29.66,WNW,294,18.0,25.0,44,0.00,,,0.00,Wunderground v.1.15,2013-04-06 20:08:00,
2013-04-06 15:14:00,67.9,44.6,29.65,West,272,17.0,25.0,43,0.00,,,0.00,Wunderground v.1.15,2013-04-06 20:14:00,
2013-04-06 15:20:00,67.9,45.2,29.65,WNW,288,20.0,20.0,44,0.00,,,0.00,Wunderground v.1.15,2013-04-06 20:20:00,
2013-04-06 15:25:00,68.8,45.4,29.65,WNW,292,20.0,30.0,43,0.00,,,0.00,Wunderground v.1.15,2013-04-06 20:25:00,
2013-04-06 15:31:00,68.7,45.3,29.65,West,279,21.0,25.0,43,0.00,,,0.00,Wunderground v.1.15,2013-04-06 20:31:00,
2013-04-06 15:37:00,68.6,45.8,29.64,WNW,290,19.0,25.0,44,0.00,,,0.00,Wunderground v.1.15,2013-04-06 20:37:00,
2013-04-06 15:42:00,68.8,46.0,29.64,WNW,296,17.0,25.0,44,0.00,,,0.00,Wunderground v.1.15,2013-04-06 20:42:00,
2013-04-06 15:48:00,69.9,47.0,29.64,WNW,294,20.0,27.0,44,0.00,,,0.00,Wunderground v.1.15,2013-04-06 20:48:00,
2013-04-06 15:53:00,69.7,46.2,29.64,WNW,284,20.0,23.0,43,0.00,,,0.00,Wunderground v.1.15,2013-04-06 20:53:00,
2013-04-06 15:58:00,69.2,45.7,29.63,West,278,19.0,24.0,43,0.00,,,0.00,Wunderground v.1.15,2013-04-06 20:58:00,
2013-04-06 16:04:00,70.0,46.5,29.63,WSW,258,19.0,27.0,43,0.00,,,0.00,Wunderground v.1.15,2013-04-06 21:04:00,
2013-04-06 16:09:00,70.9,46.0,29.63,WNW,284,17.0,27.0,41,0.00,,,0.00,Wunderground v.1.15,2013-04-06 21:09:00,
2013-04-06 16:14:00,70.6,47.0,29.63,WNW,288,16.0,24.0,43,0.00,,,0.00,Wunderground v.1.15,2013-04-06 21:14:00,
2013-04-06 16:20:00,70.3,46.7,29.62,West,278,18.0,18.0,43,0.00,,,0.00,Wunderground v.1.15,2013-04-06 21:20:00,
2013-04-06 16:27:00,70.0,46.5,29.62,West,276,19.0,28.0,43,0.00,,,0.00,Wunderground v.1.15,2013-04-06 21:27:00,
2013-04-06 16:33:00,69.6,46.1,29.63,WNW,282,22.0,35.0,43,0.00,,,0.00,Wunderground v.1.15,2013-04-06 21:33:00,
2013-04-06 16:38:00,69.5,46.6,29.63,WNW,284,23.0,35.0,44,0.00,,,0.00,Wunderground v.1.15,2013-04-06 21:38:00,
2013-04-06 16:43:00,69.9,47.0,29.62,NW,304,21.0,23.0,44,0.00,,,0.00,Wunderground v.1.15,2013-04-06 21:43:00,
2013-04-06 16:49:00,70.7,47.7,29.62,West,276,19.0,24.0,44,0.00,,,0.00,Wunderground v.1.15,2013-04-06 21:49:00,
2013-04-06 16:54:00,71.3,48.3,29.62,West,275,17.0,21.0,44,0.00,,,0.00,Wunderground v.1.15,2013-04-06 21:54:00,
2013-04-06 17:00:00,71.8,48.1,29.61,West,278,18.0,19.0,43,0.00,,,0.00,Wunderground v.1.15,2013-04-06 22:00:00,
2013-04-06 17:05:00,72.1,47.7,29.61,WNW,298,20.0,25.0,42,0.00,,,0.00,Wunderground v.1.15,2013-04-06 22:05:00,
2013-04-06 17:12:00,71.7,47.4,29.61,West,281,21.0,21.0,42,0.00,,,0.00,Wunderground v.1.15,2013-04-06 22:12:00,
2013-04-06 17:18:00,71.7,48.0,29.61,WNW,290,19.0,22.0,43,0.00,,,0.00,Wunderground v.1.15,2013-04-06 22:18:00,
2013-04-06 17:23:00,71.5,47.8,29.61,WNW,292,17.0,18.0,43,0.00,,,0.00,Wunderground v.1.15,2013-04-06 22:23:00,
2013-04-06 17:30:00,71.0,48.0,29.62,WNW,300,15.0,19.0,44,0.00,,,0.00,Wunderground v.1.15,2013-04-06 22:30:00,
2013-04-06 17:35:00,70.8,47.8,29.62,NW,306,14.0,19.0,44,0.00,,,0.00,Wunderground v.1.15,2013-04-06 22:35:00,
2013-04-06 17:41:00,70.6,48.2,29.62,WNW,290,15.0,15.0,45,0.00,,,0.00,Wunderground v.1.15,2013-04-06 22:41:00,
2013-04-06 17:47:00,70.4,48.6,29.63,NW,313,13.0,15.0,46,0.00,,,0.00,Wunderground v.1.15,2013-04-06 22:47:00,
2013-04-06 17:52:00,70.2,49.0,29.63,NW,310,12.0,16.0,47,0.00,,,0.00,Wunderground v.1.15,2013-04-06 22:52:00,
2013-04-06 17:57:00,70.2,49.0,29.63,WNW,300,15.0,20.0,47,0.00,,,0.00,Wunderground v.1.15,2013-04-06 22:57:00,
2013-04-06 18:02:00,70.1,48.9,29.64,West,275,15.0,18.0,47,0.00,,,0.00,Wunderground v.1.15,2013-04-06 23:02:00,
2013-04-06 18:08:00,69.9,49.3,29.64,NW,315,14.0,18.0,48,0.00,,,0.00,Wunderground v.1.15,2013-04-06 23:08:00,
2013-04-06 18:13:00,69.7,49.7,29.64,WNW,300,15.0,20.0,49,0.00,,,0.00,Wunderground v.1.15,2013-04-06 23:13:00,
2013-04-06 18:19:00,69.4,49.9,29.64,WNW,294,15.0,21.0,50,0.00,,,0.00,Wunderground v.1.15,2013-04-06 23:19:00,
2013-04-06 18:24:00,69.5,50.0,29.64,WNW,289,15.0,15.0,50,0.00,,,0.00,Wunderground v.1.15,2013-04-06 23:24:00,
2013-04-06 18:29:00,69.8,49.8,29.63,WNW,286,16.0,21.0,49,0.00,,,0.00,Wunderground v.1.15,2013-04-06 23:29:00,
2013-04-06 18:35:00,69.5,50.0,29.64,WNW,295,16.0,16.0,50,0.00,,,0.00,Wunderground v.1.15,2013-04-06 23:35:00,
2013-04-06 18:40:00,69.2,50.3,29.64,NW,312,14.0,18.0,51,0.00,,,0.00,Wunderground v.1.15,2013-04-06 23:40:00,
2013-04-06 18:45:00,69.1,50.2,29.64,WNW,299,15.0,19.0,51,0.00,,,0.00,Wunderground v.1.15,2013-04-06 23:45:00,
2013-04-06 18:52:00,69.1,50.2,29.64,WNW,294,15.0,15.0,51,0.00,,,0.00,Wunderground v.1.15,2013-04-06 23:52:00,
2013-04-06 18:57:00,69.3,50.4,29.65,WNW,286,15.0,21.0,51,0.00,,,0.00,Wunderground v.1.15,2013-04-06 23:57:00,
2013-04-06 19:03:00,69.0,50.6,29.64,WNW,289,15.0,20.0,52,0.00,,,0.00,Wunderground v.1.15,2013-04-07 00:03:00,
2013-04-06 19:09:00,68.4,50.6,29.64,West,271,15.0,20.0,53,0.00,,,0.00,Wunderground v.1.15,2013-04-07 00:09:00,
2013-04-06 19:15:00,68.1,50.3,29.64,WNW,286,14.0,16.0,53,0.00,,,0.00,Wunderground v.1.15,2013-04-07 00:15:00,
2013-04-06 19:21:00,67.8,50.5,29.64,WNW,282,14.0,18.0,54,0.00,,,0.00,Wunderground v.1.15,2013-04-07 00:21:00,
2013-04-06 19:26:00,67.6,50.9,29.64,West,279,13.0,19.0,55,0.00,,,0.00,Wunderground v.1.15,2013-04-07 00:26:00,
2013-04-06 19:31:00,67.4,51.2,29.64,West,275,12.0,13.0,56,0.00,,,0.00,Wunderground v.1.15,2013-04-07 00:31:00,
2013-04-06 19:36:00,67.4,51.2,29.64,West,271,10.0,13.0,56,0.00,,,0.00,Wunderground v.1.15,2013-04-07 00:36:00,
2013-04-06 19:41:00,67.3,51.1,29.64,West,270,10.0,13.0,56,0.00,,,0.00,Wunderground v.1.15,2013-04-07 00:41:00,
2013-04-06 19:48:00,67.3,51.1,29.64,West,260,11.0,14.0,56,0.00,,,0.00,Wunderground v.1.15,2013-04-07 00:48:00,
2013-04-06 19:54:00,67.2,51.0,29.64,West,275,11.0,13.0,56,0.00,,,0.00,Wunderground v.1.15,2013-04-07 00:54:00,
2013-04-06 19:59:00,67.2,51.0,29.64,West,264,11.0,15.0,56,0.00,,,0.00,Wunderground v.1.15,2013-04-07 00:59:00,
2013-04-06 20:05:00,67.2,51.0,29.64,West,277,11.0,19.0,56,0.00,,,0.00,Wunderground v.1.15,2013-04-07 01:05:00,
2013-04-06 20:12:00,67.3,51.1,29.65,WNW,285,12.0,14.0,56,0.00,,,0.00,Wunderground v.1.15,2013-04-07 01:12:00,
2013-04-06 20:18:00,67.1,51.4,29.65,WNW,285,11.0,14.0,57,0.00,,,0.00,Wunderground v.1.15,2013-04-07 01:18:00,
2013-04-06 20:23:00,67.1,51.4,29.66,WNW,291,11.0,18.0,57,0.00,,,0.00,Wunderground v.1.15,2013-04-07 01:23:00,
2013-04-06 20:29:00,67.3,52.0,29.66,WNW,303,12.0,18.0,58,0.00,,,0.00,Wunderground v.1.15,2013-04-07 01:29:00,
2013-04-06 20:35:00,66.8,52.0,29.67,NW,306,12.0,16.0,59,0.00,,,0.00,Wunderground v.1.15,2013-04-07 01:35:00,
2013-04-06 20:40:00,66.7,51.9,29.67,WNW,300,13.0,13.0,59,0.00,,,0.00,Wunderground v.1.15,2013-04-07 01:40:00,
2013-04-06 20:47:00,66.5,52.2,29.67,NW,306,12.0,18.0,60,0.00,,,0.00,Wunderground v.1.15,2013-04-07 01:47:00,
2013-04-06 20:52:00,66.4,52.1,29.68,NW,315,12.0,13.0,60,0.00,,,0.00,Wunderground v.1.15,2013-04-07 01:52:00,
2013-04-06 20:58:00,66.2,51.9,29.68,WNW,298,11.0,14.0,60,0.00,,,0.00,Wunderground v.1.15,2013-04-07 01:58:00,
2013-04-06 21:03:00,66.2,51.9,29.69,NW,309,10.0,13.0,60,0.00,,,0.00,Wunderground v.1.15,2013-04-07 02:03:00,
2013-04-06 21:08:00,66.0,51.7,29.69,NW,307,8.0,13.0,60,0.00,,,0.00,Wunderground v.1.15,2013-04-07 02:08:00,
2013-04-06 21:13:00,65.9,51.6,29.69,NW,323,7.0,13.0,60,0.00,,,0.00,Wunderground v.1.15,2013-04-07 02:13:00,
2013-04-06 21:19:00,65.6,51.8,29.70,NW,304,6.0,13.0,61,0.00,,,0.00,Wunderground v.1.15,2013-04-07 02:19:00,
2013-04-06 21:24:00,64.9,51.1,29.70,NNW,327,5.0,13.0,61,0.00,,,0.00,Wunderground v.1.15,2013-04-07 02:24:00,
2013-04-06 21:30:00,64.7,50.0,29.70,NW,317,5.0,5.0,59,0.00,,,0.00,Wunderground v.1.15,2013-04-07 02:30:00,
2013-04-06 21:35:00,64.8,49.7,29.71,NW,317,5.0,13.0,58,0.00,,,0.00,Wunderground v.1.15,2013-04-07 02:35:00,
2013-04-06 21:42:00,64.7,49.6,29.71,NW,317,5.0,13.0,58,0.00,,,0.00,Wunderground v.1.15,2013-04-07 02:42:00,
2013-04-06 21:47:00,64.4,48.8,29.71,NW,317,3.0,13.0,57,0.00,,,0.00,Wunderground v.1.15,2013-04-07 02:47:00,
2013-04-06 21:52:00,64.3,47.8,29.71,NW,322,3.0,13.0,55,0.00,,,0.00,Wunderground v.1.15,2013-04-07 02:52:00,
2013-04-06 21:58:00,64.4,47.4,29.72,NW,320,3.0,13.0,54,0.00,,,0.00,Wunderground v.1.15,2013-04-07 02:58:00,
2013-04-06 22:04:00,64.5,46.5,29.72,NW,323,4.0,13.0,52,0.00,,,0.00,Wunderground v.1.15,2013-04-07 03:04:00,
2013-04-06 22:10:00,64.3,45.8,29.72,NW,314,3.0,13.0,51,0.00,,,0.00,Wunderground v.1.15,2013-04-07 03:10:00,
2013-04-06 22:15:00,63.9,45.4,29.72,NW,306,4.0,13.0,51,0.00,,,0.00,Wunderground v.1.15,2013-04-07 03:15:00,
2013-04-06 22:22:00,63.8,45.3,29.72,NW,316,4.0,13.0,51,0.00,,,0.00,Wunderground v.1.15,2013-04-07 03:22:00,
2013-04-06 22:28:00,63.3,44.9,29.73,NW,316,3.0,13.0,51,0.00,,,0.00,Wunderground v.1.15,2013-04-07 03:28:00,
2013-04-06 22:37:00,62.8,44.9,29.73,NW,320,3.0,13.0,52,0.00,,,0.00,Wunderground v.1.15,2013-04-07 03:37:00,
2013-04-06 22:43:00,62.6,44.7,29.73,NW,321,3.0,13.0,52,0.00,,,0.00,Wunderground v.1.15,2013-04-07 03:43:00,
2013-04-06 22:50:00,62.1,44.8,29.74,NW,321,3.0,3.0,53,0.00,,,0.00,Wunderground v.1.15,2013-04-07 03:50:00,
2013-04-06 22:56:00,61.6,44.3,29.74,NW,321,2.0,13.0,53,0.00,,,0.00,Wunderground v.1.15,2013-04-07 03:56:00,
2013-04-06 23:00:00,61.6,44.3,29.74,NW,320,3.0,13.0,53,0.00,,,0.00,Wunderground v.1.15,2013-04-07 04:00:00,
2013-04-06 23:03:00,61.6,44.3,29.74,NW,319,3.0,13.0,53,0.00,,,0.00,Wunderground v.1.15,2013-04-07 04:03:00,
2013-04-06 23:04:00,61.6,44.3,29.74,NW,319,3.0,13.0,53,0.00,,,0.00,Wunderground v.1.15,2013-04-07 04:04:00,
2013-04-06 23:09:00,61.6,44.3,29.74,NW,319,2.0,13.0,53,0.00,,,0.00,Wunderground v.1.15,2013-04-07 04:09:00,
2013-04-06 23:15:00,61.6,44.3,29.74,NW,319,2.0,13.0,53,0.00,,,0.00,Wunderground v.1.15,2013-04-07 04:15:00,
2013-04-06 23:20:00,61.4,44.1,29.74,NW,319,1.0,13.0,53,0.00,,,0.00,Wunderground v.1.15,2013-04-07 04:20:00,
2013-04-06 23:26:00,61.2,44.4,29.74,NW,319,1.0,13.0,54,0.00,,,0.00,Wunderground v.1.15,2013-04-07 04:26:00,
2013-04-06 23:32:00,60.8,44.0,29.75,NW,319,0.0,13.0,54,0.00,,,0.00,Wunderground v.1.15,2013-04-07 04:32:00,
2013-04-06 23:38:00,60.4,44.2,29.75,NW,319,0.0,13.0,55,0.00,,,0.00,Wunderground v.1.15,2013-04-07 04:38:00,
2013-04-06 23:43:00,60.2,44.0,29.74,NW,319,1.0,13.0,55,0.00,,,0.00,Wunderground v.1.15,2013-04-07 04:43:00,
2013-04-06 23:48:00,59.8,44.1,29.74,NW,319,0.0,13.0,56,0.00,,,0.00,Wunderground v.1.15,2013-04-07 04:48:00,
2013-04-06 23:53:00,59.0,43.8,29.74,NW,319,0.0,13.0,57,0.00,,,0.00,Wunderground v.1.15,2013-04-07 04:53:00,
2013-04-06 23:59:00,58.1,43.8,29.74,NW,319,0.0,13.0,59,0.00,,,0.00,Wunderground v.1.15,2013-04-07 04:59:00,